ASA66 PAYA-PAJN

Flight info

Callsign ASA66
Flight time 0h 36m
Altitude 27000
Route YAK HAPIT SSR
Aircraft B737/M-SDE2E3FGHIRWXY/LB1

Departure

Time 2026-05-07 17:10
Airport Yakutat Airport (PAYA)

Arrival

Time 2026-05-07 17:47
Airport Juneau International Airport (PAJN)
Time Latitude Longitude Altitude Speed Heading
2026-05-07 16:58 59.50940 -139.66823 47 ft 0 kts 313°
2026-05-07 17:06 59.50934 -139.66810 45 ft 4 kts 323°
2026-05-07 17:06 59.50915 -139.66803 48 ft 4 kts 32°
2026-05-07 17:06 59.50900 -139.66824 48 ft 1 kts 36°
2026-05-07 17:06 59.50897 -139.66828 45 ft 0 kts 36°
2026-05-07 17:08 59.50903 -139.66785 48 ft 5 kts 82°
2026-05-07 17:08 59.50910 -139.66698 48 ft 7 kts 82°
2026-05-07 17:08 59.50916 -139.66586 48 ft 9 kts 85°
2026-05-07 17:09 59.50917 -139.66452 47 ft 11 kts 95°
2026-05-07 17:09 59.50954 -139.66323 47 ft 12 kts 46°
2026-05-07 17:09 59.51033 -139.66290 45 ft 15 kts 323°
2026-05-07 17:09 59.51096 -139.66434 48 ft 9 kts 15°
2026-05-07 17:10 59.51059 -139.66340 46 ft 35 kts 134°
2026-05-07 17:10 59.50651 -139.65542 50 ft 126 kts 135°
2026-05-07 17:10 59.49909 -139.64101 552 ft 159 kts 135°
2026-05-07 17:10 59.49161 -139.62538 1817 ft 156 kts 134°
2026-05-07 17:11 59.48378 -139.60903 2696 ft 179 kts 139°
2026-05-07 17:11 59.47328 -139.59100 3142 ft 217 kts 140°
2026-05-07 17:11 59.46084 -139.57016 3658 ft 250 kts 140°
2026-05-07 17:11 59.44767 -139.54772 4898 ft 251 kts 139°
2026-05-07 17:12 59.43442 -139.52514 6166 ft 253 kts 139°
2026-05-07 17:12 59.42099 -139.50229 7251 ft 259 kts 139°
2026-05-07 17:12 59.40714 -139.47875 8213 ft 265 kts 139°
2026-05-07 17:12 59.39300 -139.45475 9168 ft 272 kts 140°
2026-05-07 17:13 59.37847 -139.43010 10140 ft 279 kts 140°
2026-05-07 17:13 59.36334 -139.40451 10665 ft 302 kts 140°
2026-05-07 17:13 59.34657 -139.37620 11063 ft 326 kts 141°
2026-05-07 17:13 59.32915 -139.34678 11873 ft 335 kts 141°
2026-05-07 17:14 59.31127 -139.31659 12739 ft 343 kts 142°
2026-05-07 17:14 59.29317 -139.28608 13595 ft 351 kts 143°
2026-05-07 17:14 59.27449 -139.25465 14468 ft 356 kts 143°
2026-05-07 17:14 59.25552 -139.22277 15323 ft 361 kts 143°
2026-05-07 17:15 59.23632 -139.19055 16175 ft 366 kts 143°
2026-05-07 17:15 59.21685 -139.15794 16999 ft 371 kts 144°
2026-05-07 17:15 59.19707 -139.12486 17829 ft 377 kts 144°
2026-05-07 17:15 59.17699 -139.09133 18642 ft 382 kts 144°
2026-05-07 17:16 59.15660 -139.05736 19366 ft 387 kts 144°
2026-05-07 17:16 59.13635 -139.02365 20111 ft 391 kts 144°
2026-05-07 17:16 59.11550 -138.98900 20860 ft 396 kts 145°
2026-05-07 17:16 59.09438 -138.95396 21576 ft 400 kts 145°
2026-05-07 17:17 59.07306 -138.91865 22263 ft 405 kts 145°
2026-05-07 17:17 59.05144 -138.88292 22956 ft 410 kts 146°
2026-05-07 17:17 59.02958 -138.84684 23642 ft 415 kts 146°
2026-05-07 17:17 59.00744 -138.81036 24231 ft 419 kts 146°
2026-05-07 17:18 58.98516 -138.77371 24833 ft 422 kts 146°
2026-05-07 17:18 58.96277 -138.73689 25589 ft 420 kts 147°
2026-05-07 17:18 58.94054 -138.70038 26377 ft 418 kts 147°
2026-05-07 17:18 58.91835 -138.66402 27025 ft 420 kts 147°
2026-05-07 17:19 58.89597 -138.62748 27242 ft 420 kts 147°
2026-05-07 17:19 58.87371 -138.59115 27255 ft 418 kts 148°
2026-05-07 17:19 58.85896 -138.56713 27268 ft 418 kts 148°
2026-05-07 17:19 58.83660 -138.53079 27249 ft 421 kts 148°
2026-05-07 17:20 58.80677 -138.48248 27231 ft 425 kts 148°
2026-05-07 17:20 58.79150 -138.45771 27255 ft 426 kts 148°
2026-05-07 17:20 58.76874 -138.42088 27265 ft 427 kts 148°
2026-05-07 17:20 58.74594 -138.38409 27263 ft 427 kts 148°
2026-05-07 17:21 58.72318 -138.34741 27266 ft 427 kts 148°
2026-05-07 17:21 58.70066 -138.31116 27260 ft 426 kts 148°
2026-05-07 17:21 58.67796 -138.27470 27261 ft 424 kts 148°
2026-05-07 17:21 58.65528 -138.23831 27269 ft 423 kts 148°
2026-05-07 17:22 58.63265 -138.20210 27262 ft 422 kts 148°
2026-05-07 17:22 58.61011 -138.16609 27268 ft 421 kts 148°
2026-05-07 17:22 58.58753 -138.13008 27264 ft 421 kts 148°
2026-05-07 17:22 58.56529 -138.09468 27269 ft 420 kts 148°
2026-05-07 17:23 58.54252 -138.05850 27270 ft 420 kts 148°
2026-05-07 17:23 58.52033 -138.02331 27271 ft 420 kts 149°
2026-05-07 17:23 58.49784 -137.98770 27270 ft 420 kts 149°
2026-05-07 17:23 58.47519 -137.95190 27276 ft 420 kts 149°
2026-05-07 17:24 58.45262 -137.91628 27273 ft 421 kts 149°
2026-05-07 17:24 58.43004 -137.88069 27273 ft 421 kts 149°
2026-05-07 17:24 58.40744 -137.84515 27273 ft 422 kts 149°
2026-05-07 17:24 58.38479 -137.80959 27238 ft 422 kts 149°
2026-05-07 17:25 58.36207 -137.77397 27262 ft 422 kts 149°
2026-05-07 17:25 58.33934 -137.73838 27265 ft 423 kts 149°
2026-05-07 17:25 58.31657 -137.70279 27270 ft 424 kts 149°
2026-05-07 17:25 58.29405 -137.66766 27274 ft 424 kts 149°
2026-05-07 17:26 58.27117 -137.63200 27274 ft 425 kts 149°
2026-05-07 17:26 58.24831 -137.59647 27270 ft 425 kts 149°
2026-05-07 17:26 58.22565 -137.56021 27259 ft 430 kts 142°
2026-05-07 17:26 58.20787 -137.51325 27279 ft 447 kts 121°
2026-05-07 17:27 58.19834 -137.45649 27257 ft 459 kts 100°
2026-05-07 17:27 58.19683 -137.39583 27295 ft 460 kts 92°
2026-05-07 17:27 58.19688 -137.33586 27243 ft 460 kts 91°
2026-05-07 17:27 58.19729 -137.27522 27270 ft 459 kts 91°
2026-05-07 17:28 58.19768 -137.21478 27010 ft 460 kts 91°
2026-05-07 17:28 58.19791 -137.15410 26596 ft 457 kts 92°
2026-05-07 17:28 58.19794 -137.09399 26100 ft 453 kts 92°
2026-05-07 17:28 58.19782 -137.03458 25630 ft 448 kts 92°
2026-05-07 17:29 58.19760 -136.97580 25169 ft 443 kts 92°
2026-05-07 17:29 58.19731 -136.91773 24691 ft 438 kts 92°
2026-05-07 17:29 58.19699 -136.86016 24214 ft 433 kts 92°
2026-05-07 17:29 58.19665 -136.80324 23719 ft 428 kts 92°
2026-05-07 17:30 58.19628 -136.74718 23168 ft 423 kts 92°
2026-05-07 17:30 58.19591 -136.69239 22700 ft 417 kts 92°
2026-05-07 17:30 58.19552 -136.63774 22224 ft 411 kts 92°
2026-05-07 17:30 58.19511 -136.58390 21763 ft 406 kts 92°
2026-05-07 17:31 58.19469 -136.53069 21289 ft 401 kts 92°
2026-05-07 17:31 58.19425 -136.47801 20827 ft 397 kts 92°
2026-05-07 17:31 58.19379 -136.42591 20358 ft 393 kts 92°
2026-05-07 17:31 58.19331 -136.37435 19898 ft 389 kts 92°
2026-05-07 17:32 58.19282 -136.32321 19449 ft 386 kts 92°
2026-05-07 17:32 58.19232 -136.27266 18979 ft 382 kts 92°
2026-05-07 17:32 58.19179 -136.22253 18545 ft 378 kts 92°
2026-05-07 17:32 58.19127 -136.17345 18043 ft 375 kts 92°
2026-05-07 17:33 58.19071 -136.12357 17569 ft 372 kts 92°
2026-05-07 17:33 58.19015 -136.07473 16928 ft 372 kts 92°
2026-05-07 17:33 58.18957 -136.02624 16422 ft 370 kts 92°
2026-05-07 17:33 58.18897 -135.97753 15930 ft 368 kts 92°
2026-05-07 17:34 58.18836 -135.92926 15464 ft 365 kts 92°
2026-05-07 17:34 58.18773 -135.88139 14999 ft 359 kts 92°
2026-05-07 17:34 58.18711 -135.83454 14550 ft 351 kts 92°
2026-05-07 17:34 58.18648 -135.78870 14103 ft 346 kts 92°
2026-05-07 17:35 58.18583 -135.74374 13652 ft 344 kts 92°
2026-05-07 17:35 58.18518 -135.69844 13200 ft 341 kts 92°
2026-05-07 17:35 58.18452 -135.65380 12759 ft 337 kts 92°
2026-05-07 17:35 58.18385 -135.60971 12353 ft 333 kts 92°
2026-05-07 17:36 58.18317 -135.56597 11909 ft 330 kts 92°
2026-05-07 17:36 58.18248 -135.52267 11508 ft 327 kts 92°
2026-05-07 17:36 58.18179 -135.47974 11074 ft 324 kts 92°
2026-05-07 17:36 58.18110 -135.43765 10662 ft 322 kts 92°
2026-05-07 17:37 58.18040 -135.39539 10275 ft 319 kts 92°
2026-05-07 17:37 58.17970 -135.35431 10149 ft 304 kts 92°
2026-05-07 17:37 58.17901 -135.31498 10009 ft 293 kts 92°
2026-05-07 17:37 58.17836 -135.27675 9728 ft 288 kts 90°
2026-05-07 17:38 58.18206 -135.24013 9569 ft 280 kts 66°
2026-05-07 17:38 58.19002 -135.20674 9419 ft 280 kts 65°
2026-05-07 17:38 58.19803 -135.17342 9036 ft 281 kts 65°
2026-05-07 17:38 58.20602 -135.13972 8687 ft 280 kts 65°
2026-05-07 17:39 58.21396 -135.10602 8344 ft 279 kts 65°
2026-05-07 17:39 58.22218 -135.07274 8000 ft 277 kts 58°
2026-05-07 17:39 58.23571 -135.04736 7669 ft 273 kts 30°
2026-05-07 17:39 58.25307 -135.03345 7337 ft 270 kts 18°
2026-05-07 17:40 58.27097 -135.02247 6991 ft 269 kts 17°
2026-05-07 17:40 58.28859 -135.01185 6644 ft 261 kts 17°
2026-05-07 17:40 58.30526 -135.00163 6348 ft 250 kts 18°
2026-05-07 17:40 58.32154 -134.99147 6155 ft 242 kts 18°
2026-05-07 17:41 58.33733 -134.98153 6041 ft 233 kts 18°
2026-05-07 17:41 58.35195 -134.97227 5903 ft 211 kts 18°
2026-05-07 17:41 58.36551 -134.96366 5548 ft 199 kts 18°
2026-05-07 17:41 58.37830 -134.95553 5185 ft 188 kts 18°
2026-05-07 17:42 58.39050 -134.94755 4698 ft 184 kts 25°
2026-05-07 17:42 58.39943 -134.93163 4244 ft 179 kts 68°
2026-05-07 17:42 58.40059 -134.90890 3840 ft 172 kts 103°
2026-05-07 17:42 58.39776 -134.88701 3455 ft 168 kts 105°
2026-05-07 17:43 58.39490 -134.86578 3189 ft 162 kts 105°
2026-05-07 17:43 58.39214 -134.84508 3237 ft 161 kts 103°
2026-05-07 17:43 58.39116 -134.82395 3183 ft 158 kts 102°
2026-05-07 17:43 58.38824 -134.80404 3171 ft 150 kts 109°
2026-05-07 17:44 58.38429 -134.78648 3182 ft 140 kts 119°
2026-05-07 17:44 58.38114 -134.76908 3183 ft 139 kts 107°
2026-05-07 17:44 58.37844 -134.75107 2982 ft 141 kts 107°
2026-05-07 17:44 58.37602 -134.73291 2666 ft 142 kts 104°
2026-05-07 17:45 58.37370 -134.71495 2281 ft 139 kts 105°
2026-05-07 17:45 58.37129 -134.69747 1985 ft 136 kts 105°
2026-05-07 17:45 58.36880 -134.67988 1654 ft 138 kts 104°
2026-05-07 17:45 58.36679 -134.66189 1298 ft 139 kts 101°
2026-05-07 17:46 58.36456 -134.64432 962 ft 136 kts 108°
2026-05-07 17:46 58.36191 -134.62677 656 ft 139 kts 105°
2026-05-07 17:46 58.35954 -134.60892 318 ft 138 kts 106°
2026-05-07 17:46 58.35721 -134.59247 45 ft 120 kts 105°
2026-05-07 17:47 58.35535 -134.57901 31 ft 86 kts 105°
2026-05-07 17:47 58.35466 -134.57394 34 ft 18 kts 102°
2026-05-07 17:47 58.35525 -134.57272 34 ft 6 kts 11°
2026-05-07 17:47 58.35549 -134.57278 33 ft 5 kts 329°
2026-05-07 17:48 58.35575 -134.57388 34 ft 14 kts 285°
2026-05-07 17:48 58.35609 -134.57627 34 ft 23 kts 285°
2026-05-07 17:48 58.35648 -134.57925 34 ft 23 kts 282°
2026-05-07 17:48 58.35686 -134.58214 33 ft 22 kts 286°
2026-05-07 17:49 58.35729 -134.58490 33 ft 21 kts 285°
2026-05-07 17:49 58.35779 -134.58618 33 ft 12 kts
2026-05-07 17:49 58.35852 -134.58568 34 ft 10 kts
2026-05-07 17:49 58.35879 -134.58552 34 ft 4 kts 57°
2026-05-07 17:50 58.35879 -134.58507 34 ft 3 kts 100°
2026-05-07 17:50 58.35875 -134.58467 34 ft 0 kts 102°